EWG32G EDDH-LIRF

Flight info

Callsign EWG32G
Flight time N/A
Altitude 37000
Route AMLUH2D AMLUH M852 DENIX DCT ZUCKA DCT MOOCE DCT BERAS M736 LIZUM N503 LIKDA DCT BAKOR DCT VESAL DCT VIC DCT KOPER DCT SUKOM DCT GAVRA DCT RITEB
Aircraft A320/M-SDE2E3FGIJ1RWXY/HB1

Departure

Time 2026-05-08 07:00
Airport Hamburg Helmut Schmidt Airport (EDDH)

Arrival

Time N/A
Airport Rome–Fiumicino Leonardo da Vinci International Airport (LIRF)
Time Latitude Longitude Altitude Speed Heading
2026-05-08 06:24 53.63168 10.00368 48 ft 0 kts 86°
2026-05-08 06:50 53.63167 10.00337 48 ft 4 kts 86°
2026-05-08 06:50 53.63165 10.00291 47 ft 4 kts 86°
2026-05-08 06:50 53.63163 10.00255 46 ft 4 kts 84°
2026-05-08 06:50 53.63158 10.00213 44 ft 4 kts 58°
2026-05-08 06:51 53.63141 10.00189 47 ft 3 kts 359°
2026-05-08 06:51 53.63138 10.00189 44 ft 0 kts 356°
2026-05-08 06:52 53.63167 10.00185 46 ft 12 kts 355°
2026-05-08 06:53 53.63253 10.00174 48 ft 12 kts 355°
2026-05-08 06:53 53.63347 10.00161 48 ft 16 kts 355°
2026-05-08 06:53 53.63461 10.00134 48 ft 16 kts 333°
2026-05-08 06:53 53.63540 10.00031 51 ft 12 kts 320°
2026-05-08 06:54 53.63577 9.99870 51 ft 19 kts 272°
2026-05-08 06:54 53.63624 9.99675 47 ft 18 kts 304°
2026-05-08 06:54 53.63692 9.99511 48 ft 16 kts 305°
2026-05-08 06:54 53.63756 9.99366 48 ft 15 kts 311°
2026-05-08 06:55 53.63852 9.99231 48 ft 21 kts 330°
2026-05-08 06:55 53.63989 9.99115 48 ft 23 kts 333°
2026-05-08 06:55 53.64135 9.98990 49 ft 23 kts 333°
2026-05-08 06:55 53.64273 9.98868 50 ft 23 kts 332°
2026-05-08 06:56 53.64420 9.98742 51 ft 24 kts 333°
2026-05-08 06:56 53.64573 9.98611 52 ft 26 kts 333°
2026-05-08 06:56 53.64735 9.98469 53 ft 27 kts 333°
2026-05-08 06:56 53.64893 9.98332 54 ft 25 kts 333°
2026-05-08 06:57 53.65044 9.98202 52 ft 23 kts 333°
2026-05-08 06:57 53.65184 9.98083 55 ft 22 kts 333°
2026-05-08 06:57 53.65325 9.97962 55 ft 23 kts 333°
2026-05-08 06:57 53.65463 9.97831 56 ft 21 kts 309°
2026-05-08 06:58 53.65476 9.97678 60 ft 0 kts 247°
2026-05-08 06:58 53.65469 9.97657 54 ft 7 kts 243°
2026-05-08 06:58 53.65425 9.97592 60 ft 12 kts 203°
2026-05-08 06:59 53.65344 9.97605 57 ft 11 kts 153°
2026-05-08 06:59 53.65315 9.97629 57 ft 22 kts 153°
2026-05-08 06:59 53.64946 9.97952 59 ft 94 kts 153°
2026-05-08 06:59 53.64222 9.98588 48 ft 146 kts 151°
2026-05-08 07:00 53.63211 9.99506 302 ft 171 kts 151°
2026-05-08 07:00 53.62089 10.00498 681 ft 195 kts 150°
2026-05-08 07:00 53.60849 10.01552 1403 ft 203 kts 151°
2026-05-08 07:00 53.59575 10.02611 2291 ft 203 kts 149°
2026-05-08 07:01 53.58308 10.03665 3145 ft 205 kts 149°
2026-05-08 07:01 53.57022 10.04744 3941 ft 208 kts 148°
2026-05-08 07:01 53.55741 10.05826 4684 ft 212 kts 149°
2026-05-08 07:01 53.54386 10.06978 5348 ft 216 kts 149°
2026-05-08 07:02 53.53031 10.08128 6095 ft 221 kts 150°
2026-05-08 07:02 53.51646 10.09303 6802 ft 225 kts 150°
2026-05-08 07:02 53.50250 10.10536 7522 ft 227 kts 144°
2026-05-08 07:02 53.49072 10.12300 8225 ft 231 kts 127°
2026-05-08 07:03 53.48204 10.14706 8536 ft 253 kts 116°
2026-05-08 07:03 53.47380 10.17450 8956 ft 271 kts 116°
2026-05-08 07:03 53.46517 10.20322 9644 ft 280 kts 116°
2026-05-08 07:03 53.45628 10.23262 10417 ft 284 kts 117°
2026-05-08 07:04 53.44704 10.26311 10772 ft 304 kts 117°
2026-05-08 07:04 53.43605 10.29481 11009 ft 325 kts 128°
2026-05-08 07:04 53.41919 10.32082 11555 ft 335 kts 147°
2026-05-08 07:04 53.39781 10.33667 12245 ft 340 kts 164°
2026-05-08 07:05 53.37483 10.34723 12948 ft 344 kts 165°
2026-05-08 07:05 53.35161 10.35767 13653 ft 348 kts 165°
2026-05-08 07:05 53.33610 10.36457 14099 ft 350 kts 165°
2026-05-08 07:05 53.30706 10.37744 14850 ft 354 kts 165°
2026-05-08 07:06 53.28337 10.38795 15460 ft 358 kts 166°
2026-05-08 07:06 53.25921 10.39868 16055 ft 362 kts 166°
2026-05-08 07:06 53.23475 10.40958 16672 ft 365 kts 166°
2026-05-08 07:06 53.21007 10.42062 17282 ft 369 kts 166°
2026-05-08 07:07 53.18489 10.43190 17890 ft 372 kts 166°
2026-05-08 07:07 53.16010 10.44297 18460 ft 376 kts 166°
2026-05-08 07:07 53.13472 10.45427 18987 ft 379 kts 166°
2026-05-08 07:07 53.10902 10.46464 19505 ft 381 kts 169°
2026-05-08 07:08 53.08304 10.47341 20032 ft 383 kts 171°
2026-05-08 07:08 53.05665 10.48130 20550 ft 386 kts 172°
2026-05-08 07:08 53.03012 10.48880 21069 ft 388 kts 172°
2026-05-08 07:08 53.00346 10.49634 21556 ft 391 kts 172°
2026-05-08 07:09 52.97658 10.50416 22052 ft 393 kts 172°
2026-05-08 07:09 52.94957 10.51230 22538 ft 396 kts 171°
2026-05-08 07:09 52.92240 10.52070 23013 ft 399 kts 171°
2026-05-08 07:09 52.89503 10.52926 23482 ft 401 kts 171°
2026-05-08 07:10 52.86753 10.53787 23913 ft 404 kts 171°
2026-05-08 07:10 52.83983 10.54654 24302 ft 406 kts 171°
2026-05-08 07:10 52.81200 10.55522 24685 ft 408 kts 171°
2026-05-08 07:10 52.78402 10.56389 25070 ft 410 kts 171°
2026-05-08 07:11 52.75585 10.57254 25431 ft 413 kts 172°
2026-05-08 07:11 52.72754 10.58117 25796 ft 415 kts 172°
2026-05-08 07:11 52.69906 10.58984 26155 ft 417 kts 172°
2026-05-08 07:11 52.67049 10.59858 26504 ft 419 kts 171°
2026-05-08 07:12 52.64176 10.60737 26861 ft 421 kts 171°
2026-05-08 07:12 52.61286 10.61619 27208 ft 423 kts 172°
2026-05-08 07:12 52.58417 10.62491 27552 ft 425 kts 172°
2026-05-08 07:12 52.55503 10.63380 27890 ft 428 kts 171°
2026-05-08 07:13 52.52533 10.64284 28224 ft 430 kts 172°
2026-05-08 07:13 52.49620 10.65166 28539 ft 432 kts 172°
2026-05-08 07:13 52.46650 10.66066 28862 ft 435 kts 172°
2026-05-08 07:13 52.43672 10.66969 29180 ft 437 kts 172°
2026-05-08 07:14 52.40675 10.67877 29493 ft 439 kts 172°
2026-05-08 07:14 52.37659 10.68789 29796 ft 441 kts 172°
2026-05-08 07:14 52.34639 10.69698 30090 ft 443 kts 172°
2026-05-08 07:14 52.31605 10.70607 30355 ft 445 kts 172°
2026-05-08 07:15 52.28546 10.71524 30594 ft 447 kts 172°
2026-05-08 07:15 52.25482 10.72442 30800 ft 449 kts 172°
2026-05-08 07:15 52.22398 10.73370 31012 ft 452 kts 172°
2026-05-08 07:15 52.19306 10.74298 31291 ft 452 kts 172°
2026-05-08 07:16 52.16205 10.75228 31625 ft 452 kts 172°
2026-05-08 07:16 52.13116 10.76154 31953 ft 451 kts 172°
2026-05-08 07:16 52.10038 10.77072 32278 ft 450 kts 172°
2026-05-08 07:16 52.07991 10.77680 32491 ft 450 kts 172°
2026-05-08 07:17 52.04912 10.78590 32813 ft 450 kts 172°
2026-05-08 07:17 52.01836 10.79498 33111 ft 450 kts 172°
2026-05-08 07:17 51.98767 10.80405 33401 ft 450 kts 172°
2026-05-08 07:17 51.95675 10.81323 33705 ft 450 kts 172°
2026-05-08 07:18 51.92598 10.82237 34024 ft 449 kts 172°
2026-05-08 07:18 51.89524 10.83148 34320 ft 449 kts 172°
2026-05-08 07:18 51.86456 10.84053 34579 ft 448 kts 172°
2026-05-08 07:18 51.83390 10.84956 34836 ft 448 kts 172°
2026-05-08 07:19 51.80328 10.85859 35088 ft 448 kts 172°
2026-05-08 07:19 51.77262 10.86762 35321 ft 447 kts 172°
2026-05-08 07:19 51.74199 10.87664 35547 ft 447 kts 172°
2026-05-08 07:19 51.71138 10.88563 35774 ft 447 kts 172°
2026-05-08 07:20 51.68081 10.89456 36007 ft 447 kts 172°
2026-05-08 07:20 51.65065 10.90351 36234 ft 447 kts 172°
2026-05-08 07:20 51.62013 10.91311 36451 ft 446 kts 171°
2026-05-08 07:20 51.58971 10.92303 36662 ft 446 kts 171°
2026-05-08 07:21 51.55930 10.93309 36865 ft 446 kts 171°
2026-05-08 07:21 51.52896 10.94312 37052 ft 446 kts 171°
2026-05-08 07:21 51.46822 10.96280 37151 ft 444 kts 172°
2026-05-08 07:22 51.40762 10.98208 37153 ft 444 kts 172°
2026-05-08 07:22 51.34710 11.00130 37143 ft 443 kts 172°
2026-05-08 07:23 51.28661 11.02048 37138 ft 443 kts 172°
2026-05-08 07:23 51.22609 11.03963 37147 ft 444 kts 172°
2026-05-08 07:24 51.16548 11.05882 37159 ft 444 kts 172°
2026-05-08 07:24 51.10496 11.07786 37169 ft 444 kts 172°
2026-05-08 07:25 51.04454 11.09697 37153 ft 444 kts 172°
2026-05-08 07:26 50.95356 11.12550 37163 ft 443 kts 172°
2026-05-08 07:26 50.89303 11.14434 37162 ft 443 kts 172°
2026-05-08 07:27 50.83252 11.16324 37160 ft 443 kts 172°
2026-05-08 07:27 50.77201 11.18210 37143 ft 443 kts 172°
2026-05-08 07:28 50.71187 11.20077 37143 ft 443 kts 172°
2026-05-08 07:28 50.65135 11.21943 37139 ft 443 kts 172°
2026-05-08 07:29 50.59085 11.23799 37128 ft 443 kts 172°
2026-05-08 07:29 50.53039 11.25656 37131 ft 443 kts 172°
2026-05-08 07:30 50.46979 11.27516 37135 ft 443 kts 172°
2026-05-08 07:30 50.40920 11.29373 37134 ft 443 kts 172°
2026-05-08 07:31 50.34862 11.31223 37135 ft 443 kts 172°
2026-05-08 07:31 50.28807 11.33062 37128 ft 443 kts 172°
2026-05-08 07:32 50.22755 11.34890 37126 ft 443 kts 172°
2026-05-08 07:32 50.16694 11.36722 37131 ft 443 kts 172°
2026-05-08 07:33 50.10637 11.38563 37132 ft 443 kts 172°
2026-05-08 07:33 50.04589 11.40386 37120 ft 443 kts 172°
2026-05-08 07:34 49.98527 11.42201 37127 ft 443 kts 172°
2026-05-08 07:34 49.92473 11.44015 37123 ft 443 kts 172°
2026-05-08 07:35 49.86414 11.45825 37127 ft 443 kts 172°
2026-05-08 07:35 49.80401 11.47624 37119 ft 443 kts 173°
2026-05-08 07:36 49.74347 11.49425 37121 ft 443 kts 173°
2026-05-08 07:36 49.68291 11.51208 37122 ft 443 kts 173°
2026-05-08 07:37 49.62243 11.52994 37125 ft 443 kts 173°
2026-05-08 07:37 49.56189 11.54678 37108 ft 440 kts 178°
2026-05-08 07:38 49.50103 11.55339 37115 ft 438 kts 180°
2026-05-08 07:38 49.44017 11.55976 37124 ft 439 kts 180°
2026-05-08 07:39 49.37931 11.56619 37118 ft 439 kts 180°
2026-05-08 07:39 49.31845 11.57261 37139 ft 438 kts 180°
2026-05-08 07:40 49.25758 11.57897 37130 ft 438 kts 180°
2026-05-08 07:40 49.19676 11.58530 37146 ft 438 kts 180°
2026-05-08 07:41 49.13598 11.59162 37113 ft 437 kts 180°
2026-05-08 07:41 49.07526 11.59791 37131 ft 437 kts 180°
2026-05-08 07:42 49.01459 11.60420 37134 ft 437 kts 180°
2026-05-08 07:42 48.95388 11.61044 37129 ft 437 kts 180°
2026-05-08 07:43 48.89364 11.61657 37131 ft 437 kts 180°
2026-05-08 07:43 48.83307 11.62274 37145 ft 436 kts 180°
2026-05-08 07:44 48.77258 11.62898 37150 ft 436 kts 180°
2026-05-08 07:44 48.71204 11.63513 37141 ft 436 kts 179°
2026-05-08 07:45 48.65158 11.64131 37153 ft 435 kts 179°
2026-05-08 07:45 48.59116 11.64752 37146 ft 435 kts 179°
2026-05-08 07:46 48.53080 11.65357 37139 ft 435 kts 180°
2026-05-08 07:46 48.47047 11.65966 37111 ft 434 kts 179°
2026-05-08 07:47 48.41025 11.66572 37122 ft 434 kts 179°
2026-05-08 07:47 48.35002 11.67184 37124 ft 433 kts 179°
2026-05-08 07:48 48.28979 11.67788 37118 ft 433 kts 179°
2026-05-08 07:48 48.22970 11.68399 37115 ft 433 kts 180°
2026-05-08 07:49 48.16952 11.68992 37115 ft 433 kts 180°
2026-05-08 07:49 48.10941 11.69589 37114 ft 433 kts 179°
2026-05-08 07:50 48.04930 11.70187 37101 ft 433 kts 180°
2026-05-08 07:50 47.98954 11.70780 37112 ft 433 kts 180°
2026-05-08 07:51 47.92943 11.71372 37111 ft 433 kts 180°
2026-05-08 07:51 47.86930 11.71968 37109 ft 433 kts 180°
2026-05-08 07:52 47.80923 11.72562 37102 ft 432 kts 180°
2026-05-08 07:52 47.74926 11.73155 37116 ft 432 kts 180°
2026-05-08 07:53 47.68935 11.73742 37107 ft 431 kts 180°
2026-05-08 07:53 47.62953 11.74328 37102 ft 431 kts 180°
2026-05-08 07:54 47.56966 11.74913 37104 ft 431 kts 180°
2026-05-08 07:54 47.50991 11.75496 37101 ft 430 kts 180°
2026-05-08 07:55 47.45032 11.76076 37103 ft 429 kts 180°
2026-05-08 07:55 47.39068 11.76656 37098 ft 429 kts 181°
2026-05-08 07:56 47.33137 11.76809 37108 ft 424 kts 186°
2026-05-08 07:56 47.27254 11.76474 37112 ft 422 kts 186°
2026-05-08 07:57 47.21383 11.76144 37120 ft 422 kts 186°
2026-05-08 07:57 47.15525 11.75826 37103 ft 421 kts 187°
2026-05-08 07:58 47.09714 11.75515 37107 ft 420 kts 186°
2026-05-08 07:58 47.03881 11.75200 37113 ft 419 kts 187°
2026-05-08 07:59 46.98048 11.74884 37097 ft 420 kts 187°
2026-05-08 07:59 46.92223 11.74564 37097 ft 418 kts 187°
2026-05-08 08:00 46.86403 11.74238 37104 ft 419 kts 187°
2026-05-08 08:00 46.80574 11.73921 37103 ft 419 kts 187°
2026-05-08 08:01 46.74756 11.73611 37088 ft 418 kts 187°
2026-05-08 08:01 46.68943 11.73303 37091 ft 418 kts 187°
2026-05-08 08:02 46.63135 11.72991 37087 ft 418 kts 187°
2026-05-08 08:02 46.57332 11.72669 37072 ft 417 kts 187°
2026-05-08 08:03 46.51525 11.72337 37076 ft 418 kts 187°
2026-05-08 08:03 46.45711 11.72009 37074 ft 418 kts 187°
2026-05-08 08:04 46.39899 11.71680 37084 ft 419 kts 186°
2026-05-08 08:04 46.34081 11.71366 37065 ft 418 kts 186°
2026-05-08 08:05 46.28275 11.71060 37070 ft 418 kts 186°
2026-05-08 08:05 46.22494 11.70750 37076 ft 418 kts 186°
2026-05-08 08:06 46.16688 11.70434 37078 ft 418 kts 187°
2026-05-08 08:06 46.10881 11.70121 37074 ft 418 kts 186°
2026-05-08 08:07 46.05064 11.69817 37080 ft 418 kts 187°
2026-05-08 08:07 45.99246 11.69514 37078 ft 418 kts 186°
2026-05-08 08:08 45.93439 11.69197 37069 ft 418 kts 186°
2026-05-08 08:08 45.88609 11.68936 37078 ft 418 kts 186°
2026-05-08 08:09 45.82798 11.68638 37077 ft 418 kts 186°
2026-05-08 08:09 45.76993 11.68338 37082 ft 418 kts 186°
2026-05-08 08:10 45.71179 11.68021 37078 ft 418 kts 186°
2026-05-08 08:10 45.65367 11.67713 37082 ft 418 kts 186°
2026-05-08 08:11 45.59561 11.67377 37078 ft 417 kts 187°
2026-05-08 08:11 45.53762 11.66943 37063 ft 417 kts 187°
2026-05-08 08:12 45.47968 11.66491 37075 ft 417 kts 187°
2026-05-08 08:12 45.42181 11.66057 37080 ft 417 kts 187°
2026-05-08 08:13 45.36389 11.65638 37069 ft 417 kts 187°
2026-05-08 08:13 45.30596 11.65223 37080 ft 417 kts 187°
2026-05-08 08:14 45.24805 11.64811 37079 ft 416 kts 187°
2026-05-08 08:14 45.19062 11.64398 37076 ft 416 kts 187°
2026-05-08 08:15 45.13281 11.64086 37079 ft 417 kts 184°
2026-05-08 08:15 45.07470 11.64315 37081 ft 419 kts 181°
2026-05-08 08:16 45.01648 11.64745 37085 ft 419 kts 181°
2026-05-08 08:16 44.95834 11.65093 37074 ft 418 kts 182°
2026-05-08 08:17 44.90013 11.65360 37070 ft 418 kts 182°
2026-05-08 08:17 44.84198 11.65616 37073 ft 418 kts 182°
2026-05-08 08:18 44.78373 11.65887 37068 ft 419 kts 182°
2026-05-08 08:18 44.72552 11.66168 37077 ft 419 kts 182°
2026-05-08 08:19 44.66726 11.66447 37082 ft 419 kts 182°
2026-05-08 08:19 44.60896 11.66712 37085 ft 419 kts 182°